User:    Logout
Location:
(unspecified)
Time: 17:35:40
(UTC+00:00)
Language:

A-11 Canister half - Orbit

View from above orbital plane
View from above orbital plane
View from above satellite
View from above satellite

Ground track
Ground track

The orbit data is extracted from the following two-line orbital elements,

1    51U 60009C   20055.86491279 -.00000096 +00000-0 -10863-3 0  9997
2    51 047.2148 338.8326 0103997 185.9291 174.0271 12.18270473650245
Epoch (UTC): 24 February 2020 20:45:28
Eccentricity: 0.0103997
inclination: 47.2148°
perigee height: 1517 km
apogee height: 1683 km
right ascension of ascending node: 338.8326°
argument of perigee: 185.9291°
revolutions per day: 12.18270473
mean anomaly at epoch: 174.0271°
orbit number at epoch: 65024

The dashed part of the orbit path shows where the satellite is in the earth's shadow,  

DLR